Location: Dittelbrunn
(50.0738°N, 10.2196°E)
Time: 22:29:24
(UTC+00:00)

Okean 1 Rocket - Pass Details

Date: 18 September 2020
Orbit: 605 x 635 km, 82.5° (Epoch: 30 October)

Event Time Altitude Azimuth Distance (km) Brightness Sun altitude
Exits shadow 19:51:20 55° 188° (S) 765 3.3 -22.9°
Maximum altitude 19:52:18 89° 114° (ESE) 643 3.0 -23.1°
Drops below altitude 10° 19:56:50 10° 10° (N) 2,035 6.0 -23.7°
Sets 19:59:05 0° 11° (N) 2,948 6.9 -24.0°
